Probability
0 0 0 0 0 0 0 0 0 0 0 0 0 0 0 0 0 0 0 0 0 0 0 0 0 0 0 0 0 0 0 0 0 0 0 0 0 0 0 0 0 0 0 0 0 0 0 0 0
0 0 0 0 0 0 0 0 0 0 0 0 0 0 0 0 0 0 0 0 0 0 0 0 0 0 0 0 0 0 0 0 0 0 0 0 0 0 0 0 0 0 0 0 0 0 0 0 0
0 0 0 0 0 0 0 0 0 0 0 0 0 0 0 0 0 0 0 0 0 0 1 1 1 0 0 0 0 0 0 0 0 0 0 0 0 0 0 0 0 0 0 0 0 0 0 0 0
0 0 0 0 0 0 0 0 0 0 0 0 0 0 0 0 0 0 0 0 0 0 1 4 3 1 0 0 0 0 0 0 0 0 0 0 0 0 0 0 0 0 0 0 0 0 0 0 0
0 0 0 0 0 0 0 0 0 0 0 0 0 0 0 0 0 0 0 0 0 0 2 4 5 2 0 0 0 0 0 0 0 0 0 0 0 0 0 0 0 0 0 0 0 0 0 0 0
0 0 0 0 0 0 0 0 0 0 0 0 0 0 0 0 0 0 0 0 0 0 1 3 3 1 0 0 0 0 0 0 0 0 0 0 0 0 0 0 0 0 0 0 0 0 0 0 0
0 0 0 0 0 0 0 0 0 0 0 0 0 0 0 0 0 0 0 0 0 0 0 1 1 0 0 0 0 0 0 0 0 0 0 0 0 0 0 0 0 0 0 0 0 0 0 0 0
0 0 0 0 0 0 0 0 0 0 0 0 0 0 0 0 1 3 4 3 2 1 0 0 0 0 0 0 0 0 0 0 0 0 0 0 0 0 0 0 0 0 0 0 0 0 0 0 0
0 0 0 0 0 0 0 0 0 0 0 0 0 0 0 0 2 5 7 6 4 1 1 0 0 0 0 0 0 0 0 0 0 0 0 0 0 0 0 0 0 0 0 0 0 0 0 0 0
0 0 0 0 0 0 0 0 0 0 0 0 0 0 0 0 1 3 4 4 3 1 1 1 0 0 0 1 1 1 0 0 0 0 0 0 0 0 0 0 0 0 0 0 0 0 0 0 0
0 0 0 0 0 0 0 0 0 0 0 0 0 0 0 0 0 0 0 1 1 1 3 5 4 2 1 3 4 2 1 0 0 0 0 0 0 0 0 0 0 0 0 0 0 0 0 0 0
0 0 0 0 0 0 0 0 0 0 0 0 0 0 0 0 0 0 0 0 0 0 4 12 14 11 9 11 11 6 2 1 0 0 0 0 0 0 0 0 0 0 0 0 0 0 0 0 0
0 0 0 0 0 0 0 0 0 0 0 0 0 0 0 0 0 0 0 0 0 0 4 16 25 25 25 29 28 17 7 4 2 1 0 0 0 0 0 0 0 0 0 0 0 0 0 0 0
0 0 0 0 0 0 0 0 0 0 0 0 0 0 0 0 0 0 0 0 0 0 3 13 27 34 39 47 47 34 21 12 7 4 2 0 0 0 0 0 0 0 0 0 0 0 0 0 0
0 0 0 0 0 0 0 0 0 0 0 0 0 0 0 0 0 0 0 0 0 0 1 6 18 31 44 57 63 56 42 28 16 8 4 1 0 0 0 0 0 0 0 0 0 0 0 0 0
0 0 0 0 0 0 0 0 0 0 0 0 0 0 0 0 0 0 0 0 0 0 0 1 7 22 43 64 75 73 62 47 29 15 7 3 1 0 0 0 0 0 0 0 0 0 0 0 0
0 0 0 0 0 0 0 0 0 0 0 0 0 0 0 0 0 0 0 0 0 0 0 0 3 16 41 66 77 77 69 54 35 19 9 4 1 0 0 0 0 0 0 0 0 0 0 0 0
0 0 0 0 0 0 0 0 0 0 0 0 0 0 0 0 0 0 0 0 0 0 0 0 3 17 41 61 65 60 53 41 27 16 8 2 0 0 0 0 0 0 0 0 0 0 0 0 0
0 0 0 0 0 0 0 0 0 0 0 0 0 0 0 0 0 0 0 0 0 0 0 1 7 24 45 55 48 34 24 19 13 8 4 1 0 0 0 0 0 0 0 0 0 0 0 0 0
0 0 0 0 0 0 0 0 0 0 0 0 0 0 0 0 0 0 0 0 0 0 0 1 11 32 48 46 30 14 7 5 4 2 1 0 0 0 0 0 0 0 0 0 0 0 0 0 0
0 0 0 0 0 0 0 0 0 0 0 0 0 0 0 0 0 0 0 0 0 0 0 2 13 33 42 32 15 5 2 1 0 0 0 0 0 0 0 0 0 0 0 0 0 0 0 0 0
0 0 0 0 0 0 0 0 0 0 0 0 0 0 0 0 0 0 0 0 0 0 0 2 10 24 27 17 6 1 0 0 0 0 0 0 0 0 0 0 0 0 0 0 0 0 0 0 0
0 0 0 0 0 0 0 0 0 0 0 0 0 0 0 0 0 0 0 0 0 0 0 1 5 11 13 7 1 0 0 0 0 0 0 0 0 0 0 0 0 0 0 0 0 0 0 0 0
0 0 0 0 0 0 0 0 0 0 0 0 0 0 0 0 0 0 0 0 0 0 0 0 1 4 4 2 0 0 0 0 0 0 0 0 0 0 0 0 0 0 0 0 0 0 0 0 0
0 0 0 0 0 0 0 0 0 0 0 0 0 0 0 0 0 0 0 0 0 0 0 0 0 1 1 1 0 0 0 0 0 0 0 0 0 0 0 0 0 0 0 0 0 0 0 0 0
0 0 0 0 0 0 0 0 0 0 0 0 0 0 0 0 0 0 0 0 0 0 0 0 0 0 0 0 0 0 0 0 0 0 0 0 0 0 0 0 0 0 0 0 0 0 0 0 0
0 0 0 0 0 0 0 0 0 0 0 0 0 0 0 0 0 0 0 0 0 0 0 0 0 0 0 0 0 0 0 0 0 0 0 0 0 0 0 0 0 0 0 0 0 0 0 0 0
0 0 0 0 0 0 0 0 0 0 0 0 0 0 0 0 0 0 0 0 0 0 0 0 0 0 0 0 0 0 0 0 0 0 0 0 0 0 0 0 0 0 0 0 0 0 0 0 0
0 0 0 0 0 0 0 0 0 0 0 0 0 0 0 0 0 0 0 0 0 0 0 0 0 0 0 0 0 0 0 0 0 0 0 0 0 0 0 0 0 0 0 0 0 0 0 0 0
0 0 0 0 0 0 0 0 0 0 0 0 0 0 0 0 0 0 0 0 0 0 0 0 0 0 0 0 0 0 0 0 0 0 0 0 0 0 0 0 0 0 0 0 0 0 0 0 0
Wind_Speed
9 7 5 4 5 6 7 4 3 2 2 2 4 6 5 3 2 2 5 9 9 14 15 17 16 16 15 14 13 12 11 10 9 9 9 9 9 8 7 7 7 6 7 7 8 9 9 9 9
6 5 4 4 7 9 7 5 6 1 4 6 4 5 6 3 2 4 7 9 10 15 14 15 16 16 15 14 13 12 11 10 9 9 9 9 9 8 7 7 7 7 7 7 8 9 9 9 8
3 4 4 5 8 9 4 5 5 1 4 3 2 3 3 1 2 4 6 12 11 14 14 15 16 16 15 14 13 12 11 10 9 9 9 9 8 8 7 7 7 7 7 7 7 8 8 7 7
4 4 5 9 15 11 5 4 3 3 2 2 4 3 1 2 2 4 8 12 12 14 14 16 15 16 15 14 13 12 11 10 9 9 8 7 7 7 7 7 7 7 6 6 6 6 6 5 5
5 6 9 13 17 11 9 4 3 5 4 4 5 4 1 4 2 5 10 11 12 13 13 16 15 15 15 14 13 12 11 10 9 8 7 6 5 5 6 7 7 6 5 4 4 4 4 4 3
6 7 11 16 18 12 10 7 7 8 6 4 4 4 2 4 4 7 10 10 11 13 12 14 15 14 14 14 13 12 11 10 9 8 7 5 3 3 5 7 6 4 3 2 3 4 4 3 3
8 9 15 17 16 14 11 7 10 10 9 6 3 5 3 5 4 7 9 9 10 12 12 12 14 14 14 13 12 12 10 9 8 7 6 4 4 3 5 7 5 3 2 2 3 3 3 3 4
6 7 13 16 16 15 8 7 7 9 9 3 4 6 2 4 6 8 8 8 9 10 11 12 12 12 13 13 12 11 10 9 8 6 5 6 5 4 6 6 5 2 2 3 3 4 4 4 4
6 10 14 15 12 10 7 9 6 4 6 5 5 3 4 3 7 9 8 8 8 9 10 11 12 12 11 11 11 12 10 9 9 7 7 6 5 5 6 5 4 2 2 3 3 4 4 2 4
9 11 14 8 8 6 6 7 5 6 8 8 7 3 3 3 6 9 10 11 12 12 12 11 12 12 12 9 9 8 8 9 8 7 8 6 4 3 3 6 4 3 3 3 4 4 2 2 1
9 10 8 7 7 6 7 8 6 8 11 10 7 3 1 1 5 8 9 10 11 12 12 12 12 12 12 9 8 6 6 6 7 7 7 5 5 4 3 3 5 4 3 3 4 2 2 3 3
7 9 7 6 5 8 12 11 13 15 15 9 7 8 9 9 7 8 9 9 8 10 12 13 13 12 13 11 9 8 7 6 6 7 8 6 4 4 4 3 3 2 2 2 2 2 3 3 3
11 7 7 8 8 10 12 16 17 18 18 17 16 16 16 15 13 10 9 9 9 10 11 13 14 14 13 11 9 9 9 8 8 7 8 8 6 5 5 3 3 2 2 3 2 2 3 3 3
5 7 7 8 11 12 16 19 19 19 17 18 19 20 19 18 17 14 12 11 11 11 11 12 14 15 14 12 11 10 9 9 8 8 9 9 6 5 5 4 4 3 3 3 3 3 3 2 3
4 7 10 11 13 10 11 18 22 22 20 20 20 20 21 21 19 18 16 14 13 11 10 11 13 15 15 14 13 10 9 10 9 9 10 10 8 7 6 5 4 4 4 4 3 4 2 3 2
4 6 7 4 6 7 10 17 11 9 13 17 18 18 19 19 20 19 18 16 14 12 11 10 10 14 15 14 12 9 10 10 9 8 8 10 9 9 7 6 5 5 4 4 3 2 2 3 3
7 8 8 6 6 6 11 14 7 5 9 13 14 15 15 16 18 18 17 16 15 13 12 10 12 14 14 14 11 10 9 9 8 8 7 8 9 9 8 6 6 6 4 4 4 3 3 3 4
7 8 7 8 4 8 16 19 16 15 17 18 17 17 16 17 17 17 16 15 14 13 12 11 11 12 13 11 9 7 7 7 6 6 8 10 9 10 9 7 7 6 5 4 4 5 4 4 4
5 9 12 11 9 13 20 25 22 20 21 22 21 21 21 21 20 18 17 15 13 12 12 12 12 13 12 10 10 9 8 7 6 6 9 10 10 10 9 7 7 5 5 5 4 4 4 5 5
12 13 15 13 10 12 20 29 25 24 26 25 24 23 23 23 22 21 19 16 15 14 13 12 13 14 15 12 10 7 8 6 7 7 8 10 10 10 8 9 7 7 6 6 5 4 2 3 4
14 15 15 14 14 14 18 24 18 14 17 20 21 22 23 23 23 22 21 20 16 15 14 11 13 15 15 14 10 10 8 7 6 7 7 8 9 9 9 9 8 7 6 6 5 4 3 2 3
10 9 12 12 10 8 6 15 15 10 12 13 16 17 19 20 21 21 21 21 18 16 13 13 13 15 16 16 15 17 12 10 8 8 8 9 9 9 9 10 9 8 6 6 5 4 3 2 2
7 3 7 9 10 13 11 13 19 10 14 13 15 16 17 17 18 19 20 19 18 16 13 13 14 15 16 16 17 16 13 11 11 11 12 10 9 9 9 9 8 8 6 6 5 4 3 2 1
6 4 7 9 7 12 13 15 19 11 12 11 12 14 15 15 16 17 17 17 16 14 13 13 15 16 16 16 16 16 18 18 18 15 13 10 7 8 9 9 8 8 6 6 5 3 3 1 0
9 5 4 5 7 12 6 12 18 12 9 11 13 13 13 13 14 14 15 16 15 16 16 16 17 17 17 17 16 17 19 20 20 17 14 12 9 8 9 8 8 7 6 5 4 3 1 1 2
12 9 7 7 7 8 7 15 15 12 10 11 13 13 13 13 13 13 14 14 15 17 18 18 19 18 18 17 16 16 17 13 12 14 12 11 9 9 10 9 8 8 6 5 3 2 1 2 3
8 10 8 8 11 12 13 15 16 13 13 13 12 12 12 12 13 13 12 13 14 17 18 19 19 19 18 18 18 18 16 14 14 14 12 10 10 10 10 9 8 7 5 4 2 1 2 2 4
9 5 6 7 8 11 15 19 15 12 11 10 11 11 12 13 13 12 10 11 13 15 16 17 18 19 19 19 17 15 16 15 14 13 13 13 12 11 10 9 8 6 5 3 2 1 2 4 4
12 8 9 8 9 9 14 14 6 9 8 10 11 11 12 14 14 11 8 8 11 13 15 16 18 19 18 18 18 18 16 15 14 13 13 13 12 11 10 8 7 5 4 2 1 2 3 5 5
13 14 13 10 12 12 12 17 7 8 9 10 12 12 13 14 12 9 5 8 12 14 15 17 18 18 17 18 18 17 17 15 14 14 13 13 12 10 9 7 6 4 3 1 2 3 4 5 6
Wind_Direction
304 307 287 263 251 239 243 218 216 206 214 305 304 277 269 256 266 44 85 145 134 151 153 153 152 149 146 142 137 133 130 131 134 138 136 133 127 114 102 88 73 61 51 48 48 54 64 75 81
305 291 257 254 250 240 225 206 197 178 331 318 270 239 241 239 10 75 130 146 149 154 155 157 150 152 150 146 142 137 135 135 134 133 133 132 125 113 101 85 71 64 60 58 54 56 58 61 62
264 275 258 237 237 241 230 185 174 35 322 298 286 241 272 32 92 112 124 150 155 157 159 147 152 155 154 150 147 143 141 141 137 133 132 131 127 122 108 94 81 74 69 65 62 59 56 52 47
230 205 222 236 234 233 245 163 144 307 330 322 314 270 196 69 69 91 131 156 160 161 161 149 157 158 158 156 153 150 148 148 145 141 138 136 137 133 120 109 99 90 80 71 64 60 55 46 36
222 220 222 231 237 229 231 241 254 284 306 319 310 290 190 119 112 125 147 160 164 163 162 156 161 162 163 162 160 158 156 156 156 154 151 150 153 147 133 122 115 106 92 75 60 52 47 38 18
200 212 226 231 233 225 233 239 253 263 277 291 278 263 170 118 148 142 152 163 164 163 165 159 164 165 167 169 168 166 164 163 163 164 163 154 142 140 145 137 129 120 102 66 40 32 24 13 358
212 215 232 239 241 233 232 229 246 259 261 260 261 251 168 140 123 141 151 158 161 165 169 168 173 174 173 174 173 173 170 167 168 173 167 126 80 88 143 139 133 120 75 30 16 11 11 10 7
236 225 234 236 240 239 224 219 239 252 259 259 239 243 184 97 128 141 146 155 159 171 179 177 179 182 183 182 177 175 171 167 166 164 139 115 105 107 121 140 111 82 27 12 7 11 22 34 32
219 226 231 229 237 238 210 221 217 242 243 227 223 270 30 86 153 158 160 166 172 182 189 189 187 187 188 187 178 177 171 166 167 164 142 164 180 160 153 99 86 67 38 28 26 36 47 55 94
210 228 234 238 239 231 198 218 220 223 224 217 203 169 74 133 182 192 193 188 188 190 193 196 197 192 191 187 182 187 183 178 189 176 173 187 178 158 135 113 97 96 100 103 74 72 99 282 59
213 235 242 231 233 242 233 234 239 244 235 227 223 223 338 260 218 226 225 214 202 195 192 198 200 197 196 189 189 187 184 183 188 183 180 180 176 169 179 166 154 157 162 142 118 143 56 32 26
222 238 246 246 241 249 251 253 250 245 249 255 279 294 290 279 262 246 241 236 222 209 200 197 199 198 200 196 193 191 186 185 184 183 184 182 178 180 172 174 149 150 131 102 86 60 65 44 28
228 242 242 252 259 263 262 256 258 258 258 266 271 273 273 271 268 261 256 249 237 226 213 204 199 199 198 199 197 197 193 190 186 181 185 186 182 178 164 152 136 121 108 111 96 76 63 38 25
240 251 259 264 262 261 260 261 253 252 254 257 257 259 260 260 262 263 257 249 241 232 222 207 203 201 199 197 196 197 195 190 188 184 186 187 184 171 155 145 133 120 109 96 93 79 66 42 15
248 264 263 253 252 254 263 260 247 251 253 253 253 254 256 257 258 257 256 255 250 242 229 213 207 202 201 200 197 195 194 190 188 186 186 185 178 163 150 139 131 120 114 111 99 85 58 39 8
226 244 252 232 240 236 240 261 262 253 253 253 254 254 254 255 256 255 254 252 251 246 235 218 204 204 201 200 196 192 192 189 186 180 177 176 168 155 143 132 125 122 115 107 92 72 55 31 354
218 240 247 257 237 250 242 266 270 263 262 262 261 260 259 259 257 255 253 252 250 245 235 220 206 204 199 196 192 189 187 184 177 169 164 159 150 143 132 123 120 122 113 103 93 66 36 20 355
227 234 246 254 256 268 264 265 265 264 269 270 268 265 262 259 258 257 256 254 251 247 238 223 205 199 190 184 180 175 170 163 153 150 146 142 138 134 123 118 121 121 117 112 103 88 57 23 346
272 262 264 267 278 286 275 275 272 270 266 264 262 261 259 258 257 256 254 252 245 236 225 215 200 186 177 175 174 168 159 144 130 128 132 133 131 129 123 123 122 121 112 108 103 90 62 33 352
251 261 269 278 276 278 282 281 277 265 258 257 258 257 255 254 252 249 246 243 236 228 216 205 194 182 177 176 171 161 136 118 111 111 118 124 126 126 124 127 123 119 114 104 89 78 66 47 15
243 251 264 276 296 276 285 285 269 254 248 251 252 253 253 250 248 244 239 232 228 223 212 199 190 180 176 167 148 131 116 113 111 117 114 118 121 121 123 123 121 118 112 102 89 75 63 51 44
252 250 258 270 277 281 286 293 286 276 258 251 251 249 249 247 245 243 239 231 221 217 207 196 185 178 171 163 162 161 159 151 146 138 127 120 117 120 121 120 118 115 110 108 98 83 71 46 29
245 248 249 261 272 277 249 262 279 263 257 255 253 254 255 254 250 245 240 234 224 212 199 188 178 175 170 170 169 168 153 134 129 128 126 120 119 121 122 121 118 114 110 107 106 100 79 58 12
220 236 258 253 258 261 247 235 274 273 267 266 261 262 264 263 259 253 246 235 225 207 190 180 174 172 170 169 168 162 146 141 140 141 136 131 130 126 125 123 119 117 114 114 113 109 103 64 347
196 214 248 232 226 249 251 238 257 280 273 264 270 277 281 278 270 259 248 232 215 198 186 179 172 169 168 166 162 154 150 149 148 147 145 142 141 138 136 129 124 118 116 118 119 118 125 209 271
196 207 230 260 260 275 248 246 260 277 271 264 267 277 287 287 280 270 254 232 210 194 184 178 171 166 164 160 152 147 146 144 142 144 143 142 137 134 134 128 124 122 124 128 131 148 188 240 264
188 214 240 274 281 274 257 257 268 257 255 255 262 277 292 299 292 280 263 232 208 191 183 176 168 161 158 152 144 142 143 140 140 138 134 129 128 131 132 130 127 126 129 131 147 183 244 264 279
228 206 199 218 262 267 267 267 265 270 259 259 272 288 301 308 303 291 267 227 200 186 177 169 161 155 150 144 140 138 138 137 136 134 134 131 130 131 134 132 130 133 136 146 183 233 263 279 287
197 207 213 231 243 266 282 277 294 279 266 273 283 291 301 309 308 296 267 210 181 168 162 156 150 145 142 140 136 135 135 135 133 130 130 129 130 134 134 133 135 137 141 159 216 262 273 285 292
217 218 213 232 239 241 267 278 287 269 269 278 286 292 301 307 305 292 246 172 158 155 153 148 144 141 139 136 133 132 132 132 130 129 128 129 130 130 130 132 134 134 145 198 260 278 283 291 296